Weather History for KMEZ - November, 2011

Change the Weather History Date:

Wednesday, November 2, 2011

  Actual Average (KDEQ) Record (KDEQ)
Temperature  
Mean Temperature 67 °F 58 °F  
Max Temperature 77 °F 71 °F 87 °F (2012)
Min Temperature 55 °F 45 °F 20 °F (1951)
Degree Days  
Heating Degree Days 0 8  
Month to date heating degree days 16  
Since 1 July heating degree days 149  
Cooling Degree Days 2 1  
Month to date cooling degree days 2  
Year to date cooling degree days 1936  
Growing Degree Days 17 (Base 50)    
Moisture  
Dew Point 50 °F    
Average Humidity 55    
Maximum Humidity 88    
Minimum Humidity 28    
Precipitation  
Precipitation 0.33 in 0.16 in 1.71 in (1946)
Month to date precipitation 0.32  
Year to date precipitation 40.04  
Snow  
Snow 0.00 in - - ()
Month to date snowfall  
Since 1 July snowfall  
Since 1 September snowfall  
Snow Depth -    
Sea Level Pressure  
Sea Level Pressure 30.03 in    
Wind  
Wind Speed 6 mph (South)    
Max Wind Speed 24 mph    
Max Gust Speed 33 mph    
Visibility 10 miles    
Events Rain    
T = Trace of Precipitation, MM = Missing Value Source: NWS Daily Summary

Daily Weather History Graph

Daily Weather History Graph

Search for Another Location

Airport or City:

Trip Planner

Search our weather history database for the weather conditions in past years. The results will help you decide how hot, cold, wet, or windy it might be!

Date:

Astronomy

Nov. 02, 2011 Rise Set
Actual Time 7:37 AM CDT 6:22 PM CDT
Civil Twilight 7:11 AM CDT 6:48 PM CDT
Nautical Twilight 6:41 AM CDT 7:18 PM CDT
Astronomical Twilight 6:12 AM CDT 7:47 PM CDT
Moon 1:58 PM CDT (11/2) 12:08 AM CDT (11/2)
Length of Visible Light 11h 36m
Length of Day
10h 44m
Waxing Crescent, 50% of the Moon is Illuminated
Nov 2
Waxing Crescent
Nov 10
Full
Nov 18
Last Quarter
Nov 25
New
Dec 2
First Quarter

Hourly Weather History & Observations

Time (CDT) Temp. Dew Point Humidity Pressure Visibility Wind Dir Wind Speed Gust Speed Precip Events Conditions
12:15 AM 68.0 °F 33.8 °F 28% 30.09 in 10.0 mi Calm Calm - N/A   Clear
12:35 AM 68.0 °F 33.8 °F 28% 30.08 in 10.0 mi South 6.9 mph - N/A   Clear
12:55 AM 66.2 °F 35.6 °F 32% 30.08 in 10.0 mi South 5.8 mph - N/A   Clear
1:15 AM 66.2 °F 37.4 °F 35% 30.08 in 10.0 mi SSE 3.5 mph - N/A   Clear
1:35 AM 66.2 °F 37.4 °F 35% 30.08 in 10.0 mi SSW 6.9 mph - N/A   Clear
1:55 AM 64.4 °F 39.2 °F 40% 30.08 in 10.0 mi South 6.9 mph 17.3 mph N/A   Clear
2:15 AM 64.4 °F 41.0 °F 42% 30.07 in 10.0 mi South 8.1 mph 19.6 mph N/A   Clear
2:35 AM 64.4 °F 42.8 °F 45% 30.07 in 10.0 mi South 10.4 mph 19.6 mph N/A   Clear
2:55 AM 62.6 °F 42.8 °F 48% 30.07 in 10.0 mi SSW 4.6 mph - N/A   Clear
3:15 AM 62.6 °F 44.6 °F 52% 30.08 in 10.0 mi SSW 8.1 mph 17.3 mph N/A   Clear
3:35 AM 62.6 °F 44.6 °F 52% 30.08 in 10.0 mi South 11.5 mph 16.1 mph N/A   Clear
3:55 AM 62.6 °F 42.8 °F 48% 30.08 in 10.0 mi SSW 5.8 mph 17.3 mph N/A   Clear
4:55 AM 62.6 °F 44.6 °F 52% 30.08 in 10.0 mi SSW 5.8 mph - N/A   Clear
5:55 AM 60.8 °F 50.0 °F 68% 30.08 in 10.0 mi South 8.1 mph - N/A   Clear
6:15 AM 60.8 °F 50.0 °F 68% 30.09 in 10.0 mi SSW 4.6 mph - N/A   Clear
6:35 AM 60.8 °F 50.0 °F 68% 30.08 in 10.0 mi South 4.6 mph - N/A   Clear
6:55 AM 60.8 °F 51.8 °F 72% 30.08 in 10.0 mi South 5.8 mph - N/A   Clear
7:35 AM 60.8 °F 51.8 °F 72% 30.08 in 10.0 mi SSW 5.8 mph - N/A   Clear
7:55 AM 60.8 °F 51.8 °F 72% 30.09 in 10.0 mi SSW 5.8 mph - N/A   Clear
8:15 AM 60.8 °F 46.4 °F 59% 30.10 in 10.0 mi South 5.8 mph - N/A   Clear
8:35 AM 60.8 °F 46.4 °F 59% 30.11 in 10.0 mi Calm Calm - N/A   Scattered Clouds
8:55 AM 60.8 °F 44.6 °F 55% 30.12 in 10.0 mi South 5.8 mph - N/A   Mostly Cloudy
9:55 AM 62.6 °F 51.8 °F 68% 30.12 in 10.0 mi South 6.9 mph - N/A   Scattered Clouds
10:15 AM 64.4 °F 51.8 °F 64% 30.12 in 10.0 mi South 9.2 mph - N/A   Clear
10:35 AM 66.2 °F 51.8 °F 60% 30.10 in 10.0 mi South 8.1 mph - N/A   Clear
10:55 AM 68.0 °F 53.6 °F 60% 30.10 in 10.0 mi South 6.9 mph - N/A   Clear
11:35 AM 69.8 °F 53.6 °F 56% 30.09 in 10.0 mi SSW 6.9 mph - N/A   Clear
11:55 AM 69.8 °F 55.4 °F 60% 30.09 in 10.0 mi South 6.9 mph - N/A   Clear
12:15 PM 71.6 °F 55.4 °F 57% 30.07 in 10.0 mi South 8.1 mph - N/A   Clear
12:35 PM 71.6 °F 55.4 °F 57% 30.06 in 10.0 mi South 8.1 mph 17.3 mph N/A   Clear
12:55 PM 71.6 °F 55.4 °F 57% 30.06 in 10.0 mi SSW 8.1 mph - N/A   Scattered Clouds
1:15 PM 71.6 °F 55.4 °F 57% 30.05 in 10.0 mi South 6.9 mph 18.4 mph N/A   Mostly Cloudy
1:55 PM 73.4 °F 55.4 °F 53% 30.03 in 10.0 mi South 5.8 mph - N/A   Overcast
2:15 PM 73.4 °F 55.4 °F 53% 30.02 in 10.0 mi South 5.8 mph 20.7 mph N/A   Mostly Cloudy
2:35 PM 73.4 °F 53.6 °F 50% 30.01 in 10.0 mi SSW 10.4 mph 19.6 mph N/A   Scattered Clouds
2:55 PM 75.2 °F 53.6 °F 47% 30.00 in 10.0 mi SSW 5.8 mph 17.3 mph N/A   Scattered Clouds
3:15 PM 75.2 °F 55.4 °F 50% 29.99 in 10.0 mi South 6.9 mph - N/A   Mostly Cloudy
3:35 PM 77.0 °F 55.4 °F 47% 29.98 in 10.0 mi South 3.5 mph - N/A   Mostly Cloudy
3:55 PM 75.2 °F 53.6 °F 47% 29.98 in 10.0 mi SW 5.8 mph - N/A   Scattered Clouds
4:15 PM 75.2 °F 53.6 °F 47% 29.98 in 10.0 mi South 10.4 mph - N/A   Mostly Cloudy
4:35 PM 73.4 °F 53.6 °F 50% 29.98 in 10.0 mi South 5.8 mph - N/A   Mostly Cloudy
4:55 PM 73.4 °F 53.6 °F 50% 29.97 in 10.0 mi South 8.1 mph - N/A   Scattered Clouds
5:15 PM 73.4 °F 53.6 °F 50% 29.98 in 10.0 mi SSW 5.8 mph - N/A   Scattered Clouds
5:35 PM 73.4 °F 53.6 °F 50% 29.98 in 10.0 mi South 4.6 mph - N/A   Mostly Cloudy
5:55 PM 73.4 °F 53.6 °F 50% 29.97 in 10.0 mi South 6.9 mph - N/A   Mostly Cloudy
6:15 PM 73.4 °F 55.4 °F 53% 29.98 in 10.0 mi South 3.5 mph - N/A   Mostly Cloudy
6:35 PM 71.6 °F 55.4 °F 57% 29.98 in 10.0 mi South 3.5 mph - N/A   Overcast
6:55 PM 73.4 °F 55.4 °F 53% 29.97 in 10.0 mi Calm Calm - N/A   Overcast
7:15 PM 73.4 °F 55.4 °F 53% 29.96 in 10.0 mi SSE 4.6 mph - N/A   Mostly Cloudy
7:35 PM 73.4 °F 55.4 °F 53% 29.95 in 10.0 mi South 8.1 mph - N/A   Mostly Cloudy
7:55 PM 73.4 °F 55.4 °F 53% 29.94 in 10.0 mi South 6.9 mph - N/A   Overcast
8:15 PM 73.4 °F 55.4 °F 53% 29.91 in 10.0 mi SSE 12.7 mph 24.2 mph N/A   Overcast
8:35 PM 73.4 °F 55.4 °F 53% 29.92 in 10.0 mi South 6.9 mph - N/A   Overcast
8:55 PM 73.4 °F 55.4 °F 53% 29.91 in 10.0 mi South 10.4 mph 17.3 mph N/A   Overcast
9:15 PM 71.6 °F 55.4 °F 57% 29.93 in 10.0 mi SSW 6.9 mph 17.3 mph N/A Rain Rain
9:35 PM 62.6 °F 57.2 °F 82% 29.98 in 7.0 mi WNW 24.2 mph 33.4 mph 0.06 in Rain Rain
9:55 PM 57.2 °F 53.6 °F 88% 29.99 in 5.0 mi West 23.0 mph 27.6 mph 0.18 in Rain Rain
10:15 PM 55.4 °F 51.8 °F 88% 30.01 in 5.0 mi West 18.4 mph 26.5 mph 0.15 in Rain Heavy Rain
10:55 PM 53.6 °F 50.0 °F 88% 30.03 in 7.0 mi West 19.6 mph 27.6 mph 0.30 in Rain Heavy Rain
11:15 PM 51.8 °F 48.2 °F 88% 30.03 in 7.0 mi WNW 17.3 mph 24.2 mph 0.02 in Rain Light Rain
11:35 PM 51.8 °F 46.4 °F 82% 30.06 in 10.0 mi West 17.3 mph 23.0 mph 0.05 in Rain Light Rain
11:55 PM 50.0 °F 46.4 °F 87% 30.06 in 10.0 mi West 23.0 mph 27.6 mph 0.06 in Rain Light Rain